DW7264 Weather Reports


time (UTC)temp
C
wind
direction
speed
KPH
gust
KPH
rain 1hr
cm
rain 24hr
cm
rain mn
cm
humidity
%
barometer
mb
20260504190722 26 119 0.0 0.0 0.00 0.23 0.00 30 1006.1
20260504190236 26 139 0.0 0.0 0.00 0.23 0.00 29 1006.3
20260504185728 26 153 0.0 0.0 0.00 0.23 0.00 29 1006.3
20260504185237 26 174 0.0 0.0 0.00 0.23 0.00 34 1006.3
20260504184740 26 150 0.0 0.0 0.00 0.23 0.00 33 1006.4
20260504184232 26 156 0.0 0.0 0.00 0.23 0.00 32 1006.5
20260504183731 26 150 0.0 0.0 0.00 0.23 0.00 35 1006.6
20260504182621 25 113 0.0 0.0 0.00 0.23 0.00 32 1006.7
20260504182134 25 105 0.0 0.0 0.00 0.23 0.00 34 1006.8
20260504181623 25 146 0.0 0.0 0.00 0.23 0.00 33 1006.8
20260504181128 25 171 0.0 0.0 0.00 0.23 0.00 35 1006.9
20260504180625 24 121 0.0 0.0 0.00 0.23 0.00 33 1007.0
20260504180124 23 178 0.0 0.0 0.00 0.23 0.00 36 1007.1
20260504175632 23 99 0.0 1.6 0.00 0.23 0.00 34 1007.1
20260504174458 22 127 0.0 0.0 0.00 0.23 0.00 38 1007.2
20260504173951 22 105 0.0 0.0 0.00 0.23 0.00 40 1007.3
20260504173502 22 113 0.0 0.0 0.00 0.23 0.00 41 1007.3
20260504173009 22 105 0.0 0.0 0.00 0.23 0.00 41 1007.3
20260504172509 22 125 0.0 0.0 0.00 0.23 0.00 40 1007.4
20260504172010 22 119 0.0 0.0 0.00 0.23 0.00 42 1007.4
20260504171501 22 145 0.0 0.0 0.00 0.23 0.00 42 1007.5
20260504170951 22 133 0.0 0.0 0.00 0.23 0.00 40 1007.5
20260504170449 21 116 0.0 0.0 0.00 0.23 0.00 42 1007.6
20260504160205 18 179 0.0 0.0 0.00 0.23 0.00 50 1008.2
20260504150210 14 78 0.0 0.0 0.00 0.23 0.00 59 1008.7
20260504141136 11 335 0.0 3.2 0.00 0.23 0.00 66 1008.6
20260504130426 10 269 0.0 0.0 0.00 0.23 0.00 68 1008.5
20260504120225 11 264 0.0 0.0 0.00 0.23 0.00 66 1008.3
20260504110704 12 272 0.0 0.0 0.00 0.23 0.00 64 1008.3
20260504110218 12 265 0.0 0.0 0.00 0.23 0.00 63 1008.3
20260504100557 12 246 0.0 0.0 0.00 0.23 0.00 64 1008.1
20260504100111 12 266 0.0 0.0 0.00 0.23 0.00 64 1008.1
20260504081741 15 278 0.0 0.0 0.00 0.23 0.00 56 1008.0
20260504081228 15 288 0.0 0.0 0.00 0.23 0.00 57 1008.0
20260504080736 15 268 0.0 0.0 0.00 0.23 0.00 56 1008.0
20260504080237 15 271 0.0 0.0 0.00 0.23 0.00 56 1007.9
20260504045710 15 284 0.0 0.0 0.00 0.23 0.00 67 1006.9
20260504045216 16 284 0.0 0.0 0.00 0.23 0.00 67 1006.8
20260504044709 16 284 0.0 0.0 0.00 0.23 0.00 66 1006.9
20260504044203 16 284 0.0 0.0 0.00 0.23 0.00 63 1006.8
20260504043708 16 284 0.0 0.0 0.00 0.23 0.00 63 1006.8
20260504042608 17 277 0.0 0.0 0.00 0.23 0.00 60 1006.8
20260504042059 17 277 0.0 0.0 0.00 0.23 0.00 58 1006.7
20260504041004 18 294 0.0 0.0 0.00 0.23 0.00 57 1006.6
20260504040508 18 286 0.0 0.0 0.00 0.23 0.00 55 1006.5
20260504040005 18 284 0.0 0.0 0.00 0.23 0.00 55 1006.4
20260504035451 18 301 0.0 0.0 0.00 0.23 0.00 54 1006.4
20260504033734 18 284 0.0 0.0 0.00 0.23 0.00 58 1006.1
20260504033238 18 277 0.0 0.0 0.00 0.23 0.00 56 1006.1
20260504032723 18 277 0.0 0.0 0.00 0.23 0.00 58 1006.0
20260504032215 18 264 0.0 0.0 0.00 0.23 0.00 61 1006.0
20260504031108 18 271 0.0 0.0 0.00 0.23 0.00 61 1005.9
20260504030619 18 178 0.0 0.0 0.00 0.23 0.00 59 1005.9
20260504030134 19 290 0.0 0.0 0.00 0.23 0.00 59 1005.9
20260504025627 19 290 0.0 0.0 0.00 0.23 0.00 59 1005.8
20260504025128 19 290 0.0 0.0 0.00 0.23 0.00 58 1005.8
20260504024621 19 178 0.0 0.0 0.00 0.23 0.00 59 1005.7
20260504024117 19 259 0.0 0.0 0.00 0.23 0.00 59 1005.7
20260504023620 20 259 0.0 0.0 0.00 0.23 0.00 58 1005.7
20260504023128 20 259 0.0 0.0 0.00 0.23 0.00 58 1005.7
20260504022641 20 259 0.0 0.0 0.00 0.23 0.00 57 1005.6
20260504021537 21 271 0.0 0.0 0.00 0.23 0.00 54 1005.6
20260504021037 21 271 0.0 0.0 0.00 0.23 0.00 54 1005.6
20260504020527 21 271 0.0 0.0 0.00 0.23 0.00 55 1005.6
20260504020033 22 272 0.0 0.0 0.00 0.23 0.00 52 1005.6
20260504015535 22 294 0.0 0.0 0.00 0.23 0.00 48 1005.6
20260504015041 23 294 0.0 0.0 0.00 0.23 0.00 47 1005.6
20260504014532 23 294 0.0 0.0 0.00 0.23 0.00 46 1005.7
20260504014030 24 280 0.0 0.0 0.00 0.23 0.00 44 1005.7
20260504012304 25 271 0.0 0.0 0.00 0.23 0.00 39 1005.7
20260504011817 25 271 0.0 0.0 0.00 0.23 0.00 41 1005.7
20260504011323 25 265 0.0 0.0 0.00 0.23 0.00 41 1005.7
20260504010822 25 277 0.0 0.0 0.00 0.23 0.00 43 1005.8
20260504010336 26 225 0.0 0.0 0.00 0.23 0.00 37 1005.8
20260504005848 26 276 0.0 0.0 0.00 0.23 0.00 35 1005.9
20260504005343 27 275 0.0 0.0 0.00 0.23 0.00 36 1005.9
20260504004851 27 276 0.0 0.0 0.00 0.23 0.00 33 1005.9
20260504004346 28 182 0.0 0.0 0.00 0.23 0.00 28 1005.9
20260504003845 29 128 0.0 0.0 0.00 0.23 0.00 26 1006.1
20260504003330 29 126 0.0 0.0 0.00 0.23 0.00 22 1006.0
20260504002838 30 105 0.0 0.0 0.00 0.23 0.00 24 1006.1
20260504002347 30 132 0.0 0.0 0.00 0.23 0.00 24 1006.2
20260504001856 29 117 0.0 0.0 0.00 0.23 0.00 22 1006.2
20260504001401 29 94 0.0 0.0 0.00 0.23 0.00 22 1006.2
20260504000846 30 98 0.0 0.0 0.00 0.23 0.00 22 1006.3
20260504000347 30 111 0.0 0.0 0.00 0.23 0.00 23 1006.4
20260503235900 30 184 0.0 0.0 0.00 0.23 0.00 22 1006.4
20260503235404 30 133 0.0 0.0 0.00 0.23 0.00 23 1006.4
20260503234851 30 154 0.0 0.0 0.00 0.23 0.00 24 1006.5
20260503234402 30 141 0.0 0.0 0.00 0.23 0.00 23 1006.6
20260503233850 30 118 0.0 0.0 0.00 0.23 0.00 22 1006.7
20260503231517 30 119 0.0 0.0 0.00 0.23 0.00 22 1007.0
20260503231016 30 140 0.0 0.0 0.00 0.23 0.00 22 1007.2
20260503230518 29 136 0.0 0.0 0.00 0.23 0.00 22 1007.1
20260503230022 29 131 0.0 0.0 0.00 0.23 0.00 22 1007.3
20260503225518 29 134 0.0 0.0 0.00 0.23 0.00 22 1007.4
20260503225010 29 130 0.0 0.0 0.00 0.23 0.00 22 1007.5
20260503224515 30 116 0.0 11.3 0.00 0.23 0.00 21 1007.6
20260503223354 29 167 0.0 0.0 0.00 0.23 0.00 22 1007.9
20260503222907 29 198 0.0 0.0 0.00 0.23 0.00 22 1007.9
20260503222356 29 140 0.0 0.0 0.00 0.23 0.00 23 1008.0
20260503221904 29 148 0.0 0.0 0.00 0.23 0.00 23 1008.1
20260503220755 29 150 0.0 0.0 0.00 0.23 0.00 23 1008.3
20260503220242 29 90 0.0 1.6 0.00 0.23 0.00 23 1008.4
20260503215730 29 88 0.0 0.0 0.00 0.23 0.00 23 1008.5
20260503214614 28 156 0.0 0.0 0.00 0.23 0.00 25 1008.7
20260503214104 28 167 0.0 0.0 0.00 0.23 0.00 26 1008.7
20260503213556 28 157 0.0 0.0 0.00 0.23 0.00 25 1008.9
20260503213109 28 127 0.0 0.0 0.00 0.23 0.00 25 1008.9
20260503212011 28 132 0.0 0.0 0.00 0.23 0.00 24 1009.0
20260503211510 28 135 0.0 0.0 0.00 0.23 0.00 25 1009.1
20260503211004 28 115 0.0 0.0 0.00 0.23 0.00 25 1009.2
20260503210510 28 192 0.0 0.0 0.00 0.23 0.00 26 1009.3
20260503210016 28 153 0.0 0.0 0.00 0.23 0.00 26 1009.4
20260503204926 27 185 0.0 0.0 0.00 0.23 0.00 26 1009.6
20260503204437 27 125 0.0 0.0 0.00 0.23 0.00 26 1009.6
20260503203313 27 142 0.0 0.0 0.00 0.23 0.00 30 1009.8
20260503202807 27 162 0.0 0.0 0.00 0.23 0.00 30 1009.9
20260503201651 27 159 0.0 0.0 0.00 0.23 0.00 30 1010.0
20260503200530 26 119 0.0 0.0 0.00 0.23 0.00 32 1010.2
20260503200017 26 96 0.0 0.0 0.00 0.23 0.00 31 1010.4
20260503195526 26 115 0.0 0.0 0.00 0.23 0.00 32 1010.5
20260503195034 26 125 0.0 0.0 0.00 0.23 0.00 35 1010.6
20260503194525 26 166 0.0 0.0 0.00 0.23 0.00 34 1010.7
20260503194013 26 123 0.0 0.0 0.00 0.23 0.00 35 1010.8
20260503193509 26 154 0.0 0.0 0.00 0.23 0.00 35 1010.9
20260503192958 25 157 0.0 0.0 0.00 0.23 0.00 36 1011.0
20260503192509 25 202 0.0 0.0 0.00 0.23 0.00 39 1011.0
20260503192010 25 141 0.0 0.0 0.00 0.23 0.00 37 1011.1